Regional Weather Roundup
Issued by NWS

Home | Current Version | Previous Version | Graphics & Text | Print | Product List | Glossary On
Versions: 1 2 3 4 5 6 7 8 9 10 11 12 13 14 15 16 17 18 19 20 21 22 23 24 25 26 27 28 29 30 31 32 33 34 35 36 37 38 39 40 41 42 43 44 45 46 47 48 49 50
000
ASUS45 KPSR 191300
RWRAZ

PRELIMINARY ARIZONA REGIONAL HOURLY WEATHER ROUNDUP
NATIONAL WEATHER SERVICE PHOENIX AZ
600 AM MST SAT APR 19 2014

NOTE: FAIR INDICATES FEW OR NO CLOUDS BELOW 12,000 FEET WITH NO
SIGNIFICANT WEATHER AND/OR OBSTRUCTIONS TO VISIBILITY.

AZZ001>003-036-191400-
NORTHWEST ARIZONA

CITY           SKY/WX    TMP DP  RH WIND       PRES   REMARKS
KINGMAN        PTCLDY    52  45  77 E6        29.98S
$$

AZZ004>008-015-016-018-191400-
NORTH CENTRAL ARIZONA

CITY           SKY/WX    TMP DP  RH WIND       PRES   REMARKS
GRAND CANYON   PTCLDY    34  32  92 NE3       30.11R
WILLIAMS       CLEAR     34  32  93 SE6       30.16S WCI  29
PRESCOTT       PTCLDY    40  36  86 CALM      30.04R
FLAGSTAFF      CLEAR     29  27  92 CALM      30.12R
PAYSON         PTCLDY    50  37  62 E5        30.07R
PAGE           CLOUDY    56  39  53 CALM      30.03S
$$

AZZ009>014-017-191400-
NORTHEAST ARIZONA

CITY           SKY/WX    TMP DP  RH WIND       PRES   REMARKS
WINSLOW        NOT AVBL
SAINT JOHNS    MOCLDY    37  36  96 NW5       30.09R WCI  33
WINDOW ROCK    PTCLDY    35  29  78 CALM      30.15R
SHOW LOW       MOCLDY    36  28  75 CALM      30.13S
$$

AZZ023-191400-
GREATER PHOENIX AREA

CITY           SKY/WX    TMP DP  RH WIND       PRES   REMARKS
PHOENIX        PTCLDY    64  43  46 E6        29.88R
LUKE AFB       NOT AVBL
DEER VALLEY    CLEAR     59  39  47 CALM      29.89R
SCOTTSDALE     PTCLDY    61  44  53 CALM      29.91R
MESA-GATEWAY   MOCLDY    63  45  51 E5        29.90S
$$

AZZ027-028-191400-
SOUTHWEST MARICOPA COUNTY AND PINAL COUNTY

CITY           SKY/WX    TMP DP  RH WIND       PRES   REMARKS
CASA GRANDE    CLOUDY    63  41  45 S7        29.93R
$$

AZZ503-504-507>509-191400-
SOUTHEAST ARIZONA

CITY           SKY/WX    TMP DP  RH WIND       PRES   REMARKS
TUCSON         MOCLDY    60  44  55 CALM      29.96R
DAVIS-MONTHAN  CLOUDY    60  46  59 SE5       29.95R
RYAN FIELD       N/A     55  37  50 MISG      29.97
NOGALES        PTCLDY    52  42  69 SE5       29.99R
SIERRA VISTA   MOCLDY    52  45  77 SW6       30.03R
SAFFORD        CLOUDY    59  46  62 E10       29.99F
$$

AZZ020-021-025-026-031-191400-
SOUTHWEST ARIZONA

CITY           SKY/WX    TMP DP  RH WIND       PRES   REMARKS
YUMA           CLEAR     69  46  43 NE10      29.85R
$$

CAZ031-033-041-043-047-048-061-191400-
SOUTHERN CALIFORNIA

CITY           SKY/WX    TMP DP  RH WIND       PRES   REMARKS
DOWNTOWN L.A.  CLEAR     57  52  83 CALM      29.95S
L.A. AIRPORT   PTCLDY    59  55  87 CALM      29.95F
SAN DIEGO      PTCLDY    62  54  74 NW5       29.94R
BURBANK        CLEAR     54  48  80 CALM      29.94F
ONTARIO        PTCLDY    55  50  83 W5        29.94R
RIVERSIDE      CLEAR     54  49  83 CALM      29.95R
PALM SPRINGS   CLEAR     63  52  67 W3        29.89S
EL CENTRO NAS  MOCLDY    64  50  60 CALM      29.84R
IMPERIAL       PTCLDY    61  51  70 W3        29.84R
BLYTHE         MOCLDY    67  47  48 N7        29.87R
$$

NVZ020-UTZ003-191400-
SOUTHERN NEVADA-UTAH

CITY           SKY/WX    TMP DP  RH WIND       PRES   REMARKS
LAS VEGAS      NOT AVBL
SALT LAKE CITY PTCLDY    46  45  96 S6        29.99R
$$

NMZ009-TXZ055-191400-
NEW MEXICO-WEST TEXAS

CITY           SKY/WX    TMP DP  RH WIND       PRES   REMARKS
ALBUQUERQUE    PTCLDY    49  39  68 SE6       30.12R
EL PASO        CLOUDY    62  49  62 CALM      30.01R
$$


........................KEY........................
SKY/WX - SKY CONDITION/WEATHER
TMP    - TEMPERATURE IN FAHRENHEIT
DP     - DEW POINT IN FAHRENHEIT
RH     - RELATIVE HUMIDITY IN PERCENT
WIND   - DIRECTION AND SPEED IN MILES PER HOUR (MPH)
VRB    - VARIABLE WIND DIRECTION
PRES   - MEAN SEA LEVEL PRESSURE IN INCHES OF MERCURY
         F - FALLING PRESSURE   R - RISING PRESSURE
         S - STEADY PRESSURE
VSB    - VISIBILITY IN MILES
HX     - HEAT INDEX IN FAHRENHEIT
WCI    - WIND CHILL INDEX IN FAHRENHEIT
TC     - TEMPERATURE IN CELSIUS WHICH IS ALSO KNOWN AS
         TEMPERATURE IN CENTIGRADE
AFB    - AIR FORCE BASE
         LUKE AFB IS LUKE AIR FORCE BASE
         DAVIS-MONTHAN IS DAVIS-MONTHAN AIR FORCE BASE
NAS    - NAVAL AIR STATION
         EL CENTRO NAS IS EL CENTRO NAVAL AIR STATION
N/A    - NOT AVAILABLE



USA.gov is the U.S. government's official web portal to all federal, state and local government web resources and services.